Flag for Germany Weather past 2 weeks in Bornheim (Rheinland), North Rhine-Westphalia, Germany

Now
39 °F

Fog.


Feels Like: 39 °F
Forecast: 34 / 60 °F
Wind: 2 mph from Northwest

Location: Bonn-Hangelar


UV Index: 0 (Low)

Visibility: 4 mi


Pressure: 29.96 "Hg

Humidity: 96%

Dew point: 38 °F

Location of Bornheim (Rheinland)Location

Historic Weather in Bornheim (Rheinland)

°F

Bornheim (Rheinland) temperature yesterday

Maximum temperature yesterday: 62 °F (at 6:00 PM)
Minimum temperature yesterday: 38 °F (at 6:00 AM)
Average temperature yesterday: 51 °F

Past Weeks' High & Low Weather Summary

 TemperatureHumidityPressure
High67 °F (Apr 3, 1:00 PM)99% (Apr 12, 9:00 AM)30.44 "Hg (Apr 12, 9:00 AM)
Low32 °F (Apr 16, 6:00 AM)29% (Apr 17, 4:00 PM)29.60 "Hg (Apr 3, 1:00 PM)
Average51 °F73%30.08 "Hg
* Reported Apr 3 6:00 AM — Apr 18 6:00 AM, Bornheim (Rheinland), Weather by CustomWeather, © 2014

Note: Actual official high and low records may vary slightly from our data, if they occured in-between our weather recording intervals... More about our weather records

Advertising

Historic Weather Conditions — Data for Previous 24 hours

 ConditionsComfort  
Time TempWeatherWind HumidityBarometerVisibility
6:00 AM
Apr 18
42 °FPassing clouds.3 mph95%29.96 "Hg6 mi
5:00 AM44 °FLow clouds.3 mph97%29.95 "Hg8 mi
4:00 AM45 °FLow clouds.2 mph97%29.95 "Hg8 mi
3:00 AM45 °FLow clouds.3 mph95%29.95 "Hg7 mi
2:00 AM47 °FLight rain. Low clouds.6 mph94%29.96 "Hg6 mi
6:00 PM
Apr 17
62 °FPartly sunny.6 mph34%29.99 "Hg31 mi
5:00 PM62 °FPassing clouds.6 mph31%30.02 "Hg31 mi
4:00 PM61 °FPassing clouds.6 mph29%30.05 "Hg31 mi
3:00 PM61 °FPartly sunny.5 mph38%30.09 "Hg31 mi
2:00 PM59 °FOvercast.6 mph34%30.14 "Hg31 mi
1:00 PM57 °FOvercast.5 mph36%30.16 "Hg31 mi
12:00 PM56 °FOvercast.5 mph40%30.19 "Hg31 mi
11:00 AM54 °FPartly sunny.6 mph44%30.21 "Hg31 mi
10:00 AM52 °FScattered clouds.6 mph46%30.23 "Hg31 mi
9:00 AM49 °FPassing clouds.5 mph52%30.25 "Hg37 mi
8:00 AM45 °FPassing clouds.3 mph57%30.26 "Hg37 mi
7:00 AM40 °FPassing clouds.7 mph67%30.28 "Hg28 mi
Weather by CustomWeather, © 2014

See weather overview